RH
12 12 12 12 12 12 12 13 13 13 12 12 13 12 12 12 12 11 11 11 11 11 11 11 10 11 11 11 11 10 10 10 10 10 10 9 10 10 10 10 11 11 13 15 17 18 19 20 21 21 21 21 21 21 20 19 18 18 17 17 16 16 15
10 10 10 10 10 10 11 11 10 11 11 11 11 11 11 11 11 11 11 10 11 10 10 10 10 10 11 11 10 10 10 10 10 10 9 9 9 9 8 8 8 8 8 9 10 11 12 13 14 15 16 17 17 17 17 16 16 16 16 17 16 16 15
9 9 9 9 9 9 9 9 9 9 9 9 9 9 9 9 9 9 9 9 9 9 9 9 8 9 9 9 9 9 9 9 9 9 9 9 8 8 8 8 8 7 7 7 8 9 9 9 10 10 10 11 11 11 11 12 12 12 13 14 15 15 15
8 8 8 8 8 8 8 8 8 8 8 8 8 8 8 8 8 8 8 8 8 8 8 8 8 8 8 8 8 7 8 8 8 8 7 7 7 7 7 7 7 7 6 7 7 8 8 8 8 9 9 9 8 8 8 8 8 8 8 9 10 12 13
6 6 6 6 7 7 7 7 7 7 7 7 7 7 7 7 7 8 7 7 8 8 8 7 7 8 8 8 7 7 8 8 7 8 7 7 7 7 7 6 6 6 6 6 6 6 7 7 7 8 8 8 8 8 7 7 7 6 6 6 6 7 8
6 6 5 6 5 5 5 5 5 6 6 6 6 6 6 6 6 6 6 7 7 6 7 7 7 7 7 7 6 6 7 7 7 7 7 7 7 7 7 6 6 6 6 5 5 6 6 6 7 7 7 7 7 7 7 6 6 6 5 6 5 6 6
6 5 5 5 5 5 5 5 5 5 5 5 5 5 5 5 5 5 5 5 5 5 6 5 5 6 6 6 5 5 5 5 6 6 6 6 6 6 6 6 6 5 5 5 5 5 6 6 7 7 7 7 7 7 7 6 6 6 5 5 5 5 5
5 5 5 5 5 5 5 5 5 5 4 5 4 4 4 4 4 4 4 4 5 5 5 5 5 5 5 5 5 5 5 5 5 5 5 5 5 5 5 5 5 5 4 5 4 4 5 5 6 6 6 6 7 6 7 6 5 5 5 4 5 4 4
5 5 5 5 5 4 4 4 4 4 4 4 4 4 4 4 4 4 4 4 4 4 4 4 4 4 4 4 4 4 4 4 4 4 4 4 4 4 4 4 4 4 3 3 3 3 4 4 4 5 5 5 6 6 6 6 5 5 5 4 4 4 4
4 4 4 4 4 4 4 4 4 4 4 3 3 3 3 3 3 3 3 3 3 3 4 3 3 3 3 4 3 3 3 3 3 4 3 4 4 3 4 4 3 3 3 3 3 3 3 3 4 4 5 4 5 5 5 5 4 4 4 4 3 3 4
4 4 4 4 4 4 4 4 4 4 4 4 4 3 3 3 3 3 3 3 3 3 3 3 3 3 3 3 3 3 3 3 3 3 3 3 3 3 3 3 3 3 3 3 3 3 3 3 3 4 4 4 4 4 4 4 4 4 3 4 3 3 3
4 4 4 4 4 4 4 4 4 4 3 4 4 3 3 3 3 4 4 4 4 4 4 4 4 4 3 3 3 3 3 3 3 3 3 3 3 3 3 3 3 3 3 3 2 3 2 3 3 3 4 4 3 3 4 3 4 4 3 3 3 3 3
3 3 3 3 3 3 3 3 3 3 2 3 3 3 3 3 3 3 3 3 3 3 3 3 3 3 3 2 3 2 2 2 2 2 2 2 2 2 2 2 3 2 3 3 2 3 3 3 3 3 3 3 3 3 3 4 3 3 3 3 2 3 3
3 3 3 3 3 2 3 2 2 2 2 2 2 2 2 2 2 2 2 2 3 2 2 3 2 2 3 2 2 2 2 2 2 1 2 2 2 2 2 2 2 2 2 2 2 2 3 3 3 3 3 3 3 3 3 3 3 3 3 3 2 2 3
4 3 3 3 3 3 3 3 2 2 2 3 3 2 2 2 2 2 2 2 3 3 2 3 2 2 3 2 2 2 2 2 2 2 2 2 1 2 2 1 2 2 2 2 2 2 2 2 2 2 3 3 3 3 3 3 3 3 2 3 3 2 3
4 4 3 3 3 3 3 3 3 3 3 3 3 2 2 3 2 2 3 3 3 3 2 2 3 2 2 2 2 2 2 2 2 2 2 2 2 2 2 2 2 2 2 2 2 2 2 2 2 2 2 2 2 2 3 3 3 3 2 2 2 2 3
3 3 3 3 3 3 3 3 3 3 3 3 3 3 2 3 3 3 3 3 2 3 2 2 2 2 2 3 2 2 2 2 2 2 2 2 2 2 2 2 2 2 2 2 2 2 2 2 2 2 2 2 2 2 2 2 2 2 2 2 2 2 2
3 3 3 2 3 3 3 3 3 3 3 2 2 3 2 2 3 2 3 3 2 2 2 2 2 2 2 3 2 2 2 2 2 2 3 2 3 2 2 2 2 2 2 2 2 2 2 2 2 2 2 2 2 2 2 2 2 2 2 2 2 2 2
3 3 3 2 2 3 3 3 3 2 3 3 2 2 2 2 3 2 2 2 2 2 2 2 2 2 2 2 2 2 2 2 2 2 3 3 2 3 2 2 2 2 2 2 2 2 2 2 2 2 2 2 2 2 2 2 2 2 2 2 2 2 2
3 3 3 2 2 3 3 3 3 2 2 3 2 2 2 2 2 2 2 2 2 2 2 2 2 2 2 2 2 2 2 2 2 2 2 3 2 2 3 2 2 2 2 2 2 2 2 2 2 2 2 2 2 2 2 2 2 2 2 2 3 2 2
3 3 3 3 3 3 3 3 3 3 3 2 2 2 2 2 2 2 2 2 2 2 2 2 2 2 2 2 2 2 2 2 2 2 2 2 2 2 2 2 2 2 2 2 2 2 2 2 2 2 2 2 2 2 2 2 2 3 3 3 3 2 2
3 3 3 3 3 3 3 3 3 3 3 2 2 2 2 2 2 2 2 2 2 2 2 2 2 2 2 2 2 2 2 2 2 2 2 2 2 2 2 2 2 2 2 2 2 3 3 2 3 3 2 2 2 2 3 3 2 3 3 3 3 3 2
3 3 3 3 3 3 3 3 3 3 3 2 3 2 2 3 2 2 2 2 2 2 2 2 2 2 2 2 2 2 2 2 2 2 2 2 2 2 2 2 2 2 2 3 2 2 3 3 2 3 2 2 3 2 2 3 3 3 3 3 3 3 2
2 3 3 3 3 2 3 3 3 3 3 2 3 2 2 2 2 2 2 2 2 2 2 2 2 2 2 2 2 2 2 2 2 2 2 2 2 2 2 2 2 2 2 3 2 2 3 3 2 3 2 2 2 3 2 3 3 3 3 3 2 2 2
2 3 3 3 3 2 2 3 3 3 3 3 2 3 3 2 3 3 2 3 3 2 2 2 2 2 2 2 2 2 2 2 2 2 2 2 2 2 2 2 2 2 2 2 3 2 2 3 2 2 2 2 2 3 3 3 3 3 3 2 2 2 2
2 3 3 3 3 3 2 3 3 2 3 3 2 3 3 2 3 3 2 3 3 2 2 3 2 2 3 2 2 2 2 2 2 2 2 2 2 2 2 2 2 2 2 2 3 3 2 2 3 2 2 3 3 3 3 3 3 3 3 2 2 2 2
3 3 3 3 3 3 3 3 3 3 3 3 3 2 3 3 2 3 3 2 3 2 2 2 2 2 2 3 2 2 2 2 2 2 2 2 3 3 2 3 2 2 3 3 2 3 3 2 3 3 3 3 3 3 3 3 3 3 3 2 2 2 2
3 3 3 3 2 3 3 2 3 3 2 3 3 2 3 3 3 3 3 3 2 3 2 2 3 3 2 2 3 2 3 2 2 2 3 3 3 3 3 3 3 2 3 3 2 3 3 3 3 3 3 3 3 3 3 3 3 3 2 2 2 2 3
3 3 3 3 3 3 3 3 3 3 3 3 3 3 3 3 3 3 3 3 2 3 3 2 2 3 3 3 3 2 3 3 2 3 3 3 3 3 3 3 3 3 3 3 3 3 3 3 3 3 3 3 3 3 3 3 3 3 2 2 3 3 3
3 3 3 3 3 3 3 3 3 3 3 3 3 3 3 3 3 3 3 3 3 3 3 3 3 3 3 3 3 3 3 3 3 3 3 3 3 3 3 3 4 4 3 3 4 3 3 3 3 3 3 3 3 3 3 3 3 3 3 3 3 3 3
3 3 3 3 3 3 3 3 3 3 3 3 3 3 3 3 3 3 3 3 3 3 3 3 3 3 3 3 3 3 3 3 3 3 3 4 3 3 4 4 4 4 4 3 4 4 4 4 4 3 3 3 3 3 3 3 3 3 3 3 3 3 3
3 3 3 3 3 3 3 3 3 3 3 3 3 3 3 3 3 3 3 3 3 3 3 3 3 3 3 3 3 4 3 3 3 3 3 4 4 4 4 4 4 4 4 4 4 4 4 4 4 4 4 4 4 4 3 3 3 3 3 3 3 3 3
3 3 3 3 3 3 3 3 3 3 3 3 3 3 3 3 3 3 3 3 3 3 3 3 3 3 4 3 3 3 3 3 4 4 4 4 4 4 4 4 4 4 4 4 5 4 4 5 4 4 5 4 4 4 4 3 4 4 4 4 4 4 4
3 3 3 3 3 3 3 3 3 3 3 3 3 3 3 3 3 3 3 3 3 3 3 3 3 3 3 4 3 3 4 4 4 4 4 4 4 4 5 5 5 5 5 5 5 5 5 5 5 5 5 5 4 4 4 4 4 4 4 4 4 4 4
4 3 3 3 3 3 3 3 3 4 3 4 4 3 4 4 3 3 3 3 3 4 3 3 3 4 4 4 4 4 4 4 4 4 4 5 5 5 5 5 5 5 5 5 5 5 5 5 5 5 5 5 5 4 5 5 5 5 5 5 4 4 4
4 4 4 4 3 3 3 3 4 4 4 4 4 3 4 4 4 3 4 4 3 4 4 4 3 4 4 4 4 4 4 4 4 5 5 5 5 5 5 5 5 5 5 5 5 6 6 6 6 6 5 5 5 5 5 5 5 5 5 5 5 5 5
Wind_Speed
113 113 113 113 114 114 115 116 117 117 118 118 119 120 120 121 122 122 122 123 123 124 125 125 125 125 126 128 129 130 130 131 133 134 136 137 138 138 139 140 141 141 139 141 145 147 147 149 150 151 153 154 155 155 154 153 152 151 150 149 148 147 146
110 110 110 110 110 111 112 113 113 114 115 115 116 117 118 118 119 119 120 120 121 121 122 123 122 122 123 125 126 127 127 128 129 131 132 133 134 134 135 136 137 137 136 136 140 144 144 146 148 149 151 153 155 155 155 154 153 152 151 150 149 149 148
107 107 107 107 108 109 109 110 111 111 112 113 113 114 115 116 116 117 117 117 118 119 120 120 119 119 120 122 124 124 124 125 126 128 129 130 131 131 132 133 134 134 133 133 135 138 139 140 142 145 147 149 151 153 153 153 152 151 150 149 149 148 149
104 104 104 105 105 106 107 108 108 109 110 111 111 112 112 113 114 114 114 115 115 116 117 118 117 117 118 119 121 121 121 122 123 124 126 126 127 128 129 130 131 131 131 130 131 133 134 135 137 139 141 144 146 148 149 149 149 148 147 147 146 147 147
101 101 101 101 101 102 103 104 105 106 107 108 108 109 109 110 111 111 112 112 112 113 114 115 115 115 116 117 118 118 119 120 121 121 123 124 125 126 127 128 129 129 128 128 128 129 130 131 131 133 135 137 140 142 144 145 145 144 143 142 142 142 143
100 99 99 99 99 99 100 100 101 101 102 103 104 104 105 105 106 107 107 108 108 109 110 111 111 112 113 114 114 115 116 117 118 119 119 120 121 123 125 126 126 127 127 126 126 127 127 127 127 128 130 132 135 138 139 140 141 140 139 138 137 137 138
100 100 99 99 99 99 99 99 99 100 100 100 101 101 101 102 102 103 103 104 104 105 106 107 108 109 110 111 112 113 113 114 115 116 117 117 118 120 122 124 125 125 125 125 125 125 125 125 124 124 126 128 131 134 135 136 136 136 136 135 134 133 134
99 99 99 99 99 99 99 99 99 99 99 99 99 99 99 99 99 99 100 100 101 102 104 105 106 108 109 110 111 111 112 113 113 114 115 116 116 118 120 122 123 124 123 122 122 123 123 123 121 121 122 124 127 130 131 132 133 133 132 132 131 129 129
98 98 98 98 98 98 98 98 98 98 98 98 97 97 97 97 97 97 97 98 99 101 102 103 105 106 107 108 109 110 111 112 112 113 114 114 116 117 118 120 122 122 121 120 119 119 120 120 118 117 118 120 123 126 127 128 128 128 128 128 126 124 123
96 96 96 96 96 97 97 97 97 97 96 96 95 95 95 95 95 95 95 96 97 98 99 101 102 103 104 106 106 107 108 109 109 110 111 111 113 114 115 116 118 119 119 118 117 116 117 117 114 113 115 118 120 122 124 124 123 123 123 123 120 117 115
94 94 95 94 94 94 95 95 95 95 94 94 94 93 93 93 93 93 94 94 94 95 96 97 98 99 100 101 102 103 103 104 105 105 106 107 109 110 111 112 114 116 116 116 115 114 114 113 110 110 114 117 118 119 121 121 121 120 119 118 115 112 111
92 92 92 92 91 91 91 91 92 92 91 91 91 92 92 91 91 90 91 92 92 92 93 94 95 96 97 98 99 99 100 100 101 101 103 104 106 107 108 108 110 112 113 113 113 111 111 109 107 108 112 114 114 116 118 119 118 117 116 114 112 109 108
89 89 90 89 88 87 87 87 88 88 87 87 88 89 90 89 87 86 86 87 88 89 89 90 92 93 95 96 97 98 97 97 98 99 100 101 102 103 103 103 104 107 109 109 109 107 106 105 105 106 109 110 111 112 113 114 114 113 112 110 107 105 105
87 88 88 87 86 84 84 85 85 85 85 85 86 87 86 85 83 82 81 82 83 84 85 87 89 90 92 93 95 95 94 94 94 95 95 96 96 97 97 97 98 101 103 105 105 104 102 102 103 104 104 106 107 108 108 108 109 108 107 105 102 100 100
86 86 86 86 85 83 82 83 84 84 84 84 84 84 82 81 80 79 78 78 80 82 83 84 86 86 87 88 90 90 91 90 89 89 89 89 90 91 92 92 93 95 98 99 100 100 99 99 100 100 100 101 102 103 103 103 104 104 102 99 96 95 96
84 84 84 84 83 81 80 81 83 83 82 82 81 80 78 78 78 78 76 77 79 80 80 81 82 82 83 84 85 86 86 85 84 83 83 83 84 85 86 86 88 90 92 93 94 95 95 96 95 94 95 96 97 98 98 99 99 98 96 93 92 92 94
81 82 82 81 80 79 77 77 80 81 79 78 77 76 75 75 76 75 75 77 78 77 77 77 78 78 79 80 81 82 81 80 79 78 78 79 79 80 80 80 83 86 88 88 89 90 91 91 90 90 91 92 93 94 94 94 93 92 91 89 89 91 94
78 79 79 77 75 74 73 73 76 77 76 74 73 73 73 72 72 73 75 76 75 74 72 73 73 73 75 76 77 77 76 75 75 74 75 76 76 76 76 78 81 83 83 83 84 85 86 86 86 87 87 88 89 89 89 89 88 87 86 85 86 90 92
75 75 76 75 71 70 69 70 72 73 72 70 70 70 70 68 68 71 73 73 70 69 68 68 69 70 70 71 72 72 71 71 71 71 73 74 74 74 75 76 77 78 78 79 79 80 81 82 83 83 84 85 86 86 85 84 84 83 82 82 85 89 89
71 71 72 71 68 66 67 68 68 69 68 67 68 68 66 65 67 69 69 67 65 65 64 64 65 65 65 66 67 67 67 67 68 68 70 71 71 71 72 72 73 74 74 74 75 76 77 79 79 80 81 82 82 81 81 80 79 79 79 82 85 86 86
68 67 66 66 64 64 66 66 64 64 65 66 66 65 63 63 65 65 64 62 61 61 60 60 60 61 62 63 64 64 63 64 64 66 67 67 67 67 67 68 70 71 70 71 72 73 74 75 76 77 78 78 78 77 76 75 75 76 78 80 83 84 84
64 62 62 62 61 62 63 63 61 60 62 64 63 62 61 61 61 60 59 59 58 57 57 57 58 59 59 60 60 60 61 62 63 64 64 63 62 63 63 65 67 67 67 68 69 70 71 73 74 75 75 75 75 74 73 73 74 75 77 79 80 81 82
60 58 57 58 59 60 60 59 58 58 60 60 59 58 58 58 57 56 55 55 54 55 55 55 56 56 56 56 57 57 58 60 61 62 61 60 59 60 61 63 64 64 64 65 66 68 70 71 72 73 73 73 72 71 72 73 74 76 78 78 79 79 80
56 54 54 55 57 58 56 55 55 56 56 56 55 55 55 54 53 52 52 51 52 52 53 53 53 52 52 53 54 55 56 57 58 58 57 57 58 59 60 61 61 61 62 63 65 66 67 69 69 70 70 70 69 69 70 72 73 75 76 77 77 78 78
51 50 51 52 55 55 52 51 52 53 53 53 52 52 51 50 50 49 49 49 49 50 50 50 49 49 50 50 51 52 53 54 54 53 53 54 56 57 58 59 59 59 60 62 63 64 65 66 67 67 66 66 66 66 68 70 71 73 74 74 75 75 75
48 47 49 51 53 52 49 49 49 49 49 49 49 48 48 47 47 47 47 47 47 47 47 46 46 46 47 47 48 49 50 50 50 49 49 51 53 55 56 56 57 58 59 59 61 62 62 63 63 63 62 62 63 64 67 68 69 70 71 72 72 72 72
45 45 47 50 50 48 47 46 46 46 46 46 45 45 45 44 44 44 45 45 45 44 43 43 43 43 44 44 45 46 47 48 48 47 47 48 50 52 52 53 54 55 56 56 57 58 58 58 58 58 59 60 62 64 65 66 67 67 69 69 69 69 70
43 43 44 47 47 45 44 44 43 43 44 43 42 42 41 42 42 42 43 43 42 41 40 40 41 41 41 42 43 44 45 46 46 45 45 46 48 49 49 49 51 52 52 53 54 54 55 55 55 56 58 60 61 63 63 64 65 65 66 66 65 66 68
43 42 41 42 43 42 42 42 41 41 41 40 40 40 39 40 40 40 41 40 39 38 38 37 38 39 39 40 40 41 42 43 43 42 42 43 45 46 45 46 48 48 49 49 50 51 52 53 53 55 57 58 59 60 61 62 63 63 62 62 63 64 67
44 42 39 40 41 39 39 39 39 39 38 38 38 37 37 38 38 38 38 38 37 36 35 35 36 36 36 37 38 39 40 40 40 40 40 42 44 44 43 44 45 46 47 48 48 49 50 51 52 54 55 56 57 58 60 60 60 59 59 60 61 63 66
42 42 38 38 38 37 37 37 36 36 36 35 35 35 35 36 36 36 36 35 34 34 33 33 33 34 34 35 36 37 38 38 38 39 40 42 43 43 43 44 44 45 46 47 48 49 49 50 51 52 53 54 55 57 58 57 57 57 58 59 60 63 66
39 40 37 36 36 35 35 35 34 34 34 33 33 33 34 34 34 34 34 33 33 32 31 31 32 32 33 34 35 36 37 37 38 39 40 41 42 42 42 42 43 44 44 45 46 47 48 49 50 50 51 52 53 54 55 54 55 55 56 58 60 63 66
36 38 36 35 35 34 33 33 32 32 32 32 32 32 32 32 33 33 32 32 31 30 30 30 31 32 33 34 35 35 36 36 37 38 39 40 41 40 40 40 42 42 43 44 44 45 46 46 47 48 49 50 51 52 52 52 52 53 55 58 61 63 64
34 34 34 33 33 32 32 31 31 31 31 30 30 30 31 31 31 31 31 30 30 30 30 30 31 31 32 33 34 35 36 36 37 38 39 39 39 39 38 40 41 42 42 42 43 44 44 45 45 46 47 48 49 50 50 50 50 52 55 58 60 62 62
34 33 32 31 31 30 30 30 29 29 29 29 29 29 29 29 29 29 29 29 29 29 29 30 30 30 31 32 33 34 35 37 37 38 38 39 38 38 38 40 41 41 41 42 42 43 43 44 45 45 46 47 47 48 48 48 49 52 55 57 58 59 58
33 32 30 29 29 29 28 28 28 28 28 28 28 28 28 28 28 27 27 27 28 28 28 29 29 29 31 32 33 34 35 36 37 37 38 37 37 38 38 39 40 40 40 41 41 41 42 43 44 44 45 46 46 46 46 47 49 51 53 54 54 54 55
Wind_Direction
271 271 270 269 269 268 268 267 267 266 266 266 265 265 264 264 264 263 263 262 262 261 261 260 260 260 259 259 258 258 257 257 256 256 256 255 255 255 254 254 253 252 250 249 250 249 249 249 249 250 250 251 251 251 250 250 249 248 248 247 247 247 246
271 271 270 269 269 268 267 267 266 266 265 265 265 264 264 264 263 263 263 262 262 262 261 261 260 260 259 259 259 258 258 257 257 257 256 256 256 255 255 255 254 253 252 250 249 249 249 249 249 250 250 251 251 251 251 251 250 249 249 248 247 247 247
272 271 270 270 269 268 268 267 266 266 265 265 264 264 263 263 263 263 262 262 262 262 261 261 260 260 259 259 259 258 258 257 257 257 256 256 256 255 255 255 254 254 253 251 250 249 249 248 248 249 249 250 251 252 252 252 251 251 250 249 248 247 247
272 271 271 270 269 268 268 267 266 266 265 265 264 264 263 263 263 262 262 262 262 261 261 261 260 260 259 259 258 258 258 257 257 256 256 256 255 255 255 255 254 254 253 252 251 250 249 248 248 248 248 249 250 251 252 252 252 251 250 250 249 248 247
274 272 271 270 269 268 267 266 266 265 264 264 263 263 262 262 262 262 262 261 261 261 260 260 260 259 259 258 257 257 257 256 256 255 255 255 255 255 255 254 254 254 254 253 252 251 249 249 248 247 247 248 249 249 250 251 251 251 251 250 249 248 247
275 274 273 272 271 270 268 267 266 265 264 264 263 262 261 261 261 261 260 260 260 260 260 260 259 259 258 257 257 256 255 255 255 254 254 254 254 254 254 254 254 254 254 253 253 252 250 249 249 248 247 247 248 248 249 250 251 251 250 250 249 248 247
277 276 275 274 273 272 270 269 268 267 266 265 264 263 262 261 261 260 260 260 259 259 259 259 258 258 257 257 256 255 255 254 254 254 253 253 253 253 253 253 253 253 253 253 253 252 251 250 249 248 247 247 247 247 248 249 249 250 250 250 249 247 247
277 277 276 275 274 273 272 271 270 269 268 267 266 265 264 263 262 261 261 260 260 259 258 258 257 257 256 256 255 255 254 254 253 253 253 252 252 251 252 253 253 253 253 253 252 252 251 250 249 248 248 247 247 247 247 248 248 249 249 249 248 247 246
277 277 276 275 274 273 272 272 271 270 269 268 267 266 265 264 264 263 262 261 260 259 259 258 257 257 256 256 255 255 254 254 254 253 253 253 252 252 252 253 253 254 254 254 253 252 252 251 250 249 248 248 247 247 247 247 248 248 249 249 249 248 247
278 277 276 276 275 274 274 273 272 271 271 270 269 268 267 266 265 264 263 262 261 261 260 259 258 258 257 257 256 256 255 255 255 254 254 253 253 253 253 253 253 254 254 254 254 253 252 252 251 249 248 248 248 247 247 248 248 248 248 249 249 248 247
279 278 277 276 276 275 275 275 274 273 272 272 271 270 268 267 266 266 265 264 263 263 262 262 261 260 259 259 258 257 256 256 255 254 254 253 253 252 252 252 252 253 254 254 253 253 252 252 251 249 248 248 248 248 248 248 248 248 248 248 249 248 247
279 279 278 277 276 276 275 275 274 273 273 272 271 270 268 267 265 265 265 265 264 263 263 263 262 262 261 260 259 257 256 256 255 254 253 253 252 252 251 251 251 252 253 253 253 253 252 252 250 249 248 248 248 248 247 247 247 248 248 248 248 247 247
281 280 279 278 277 276 276 275 274 273 272 271 270 269 268 267 265 265 264 264 264 263 263 262 261 261 261 260 259 258 256 255 255 254 254 253 253 253 252 252 252 252 253 253 253 253 253 252 250 249 248 248 248 247 247 247 247 248 247 247 246 246 245
282 281 280 279 278 278 277 276 275 274 273 272 271 270 269 269 268 267 266 265 264 264 262 261 260 259 259 259 259 258 257 256 255 255 254 254 254 254 254 253 252 252 252 253 253 253 252 251 250 249 248 248 248 247 247 247 247 247 247 246 245 244 244
282 281 281 280 280 279 278 277 276 275 275 274 273 273 272 272 271 270 268 267 265 263 262 261 260 259 259 259 259 259 258 258 257 256 255 255 254 254 253 253 252 251 251 251 252 251 251 250 249 249 248 248 248 247 247 246 246 246 246 246 245 244 243
281 281 280 280 279 279 278 278 277 276 275 274 274 274 273 272 271 270 269 267 265 263 262 261 261 260 260 260 259 259 259 259 258 257 257 256 255 254 253 253 252 251 250 250 250 250 250 249 249 248 248 247 247 247 246 246 246 246 246 245 244 243 242
281 280 279 279 278 278 278 277 277 276 275 274 274 274 273 271 270 269 268 266 264 263 262 262 261 261 261 260 260 259 259 259 259 258 257 256 255 254 253 252 251 250 249 248 248 248 248 248 248 247 247 246 246 246 245 245 245 245 245 244 243 242 241
282 281 280 280 279 279 279 278 276 275 275 274 274 272 271 269 269 268 266 265 264 264 263 262 262 261 260 259 259 259 259 259 258 257 256 255 253 252 250 249 248 248 247 247 247 247 247 247 246 246 245 245 244 244 244 243 243 243 243 242 241 241 240
282 282 281 281 281 281 279 277 276 275 275 275 273 271 270 269 268 266 265 265 265 265 263 262 261 260 259 259 259 258 258 257 256 255 254 253 252 250 249 248 247 247 246 246 246 245 245 245 245 244 244 243 243 243 242 242 241 241 240 240 239 239 239
282 282 282 282 282 281 279 277 275 276 275 274 273 271 271 270 268 267 266 266 266 265 264 262 261 260 259 258 257 256 255 254 253 252 252 251 250 249 248 248 247 247 246 245 245 244 244 244 243 243 243 243 242 242 242 241 241 240 239 238 237 237 236
283 283 283 283 282 280 278 277 276 276 275 273 272 272 271 270 268 268 268 268 266 265 264 262 260 259 257 256 255 254 252 251 250 249 249 249 248 248 247 246 246 245 244 244 243 243 242 242 242 241 241 241 241 241 240 240 239 238 237 236 236 235 235
285 285 284 283 282 279 278 277 277 275 274 273 273 273 271 270 269 269 269 268 266 265 263 261 259 257 256 255 254 253 251 249 248 247 246 246 245 245 244 243 243 242 242 241 240 240 239 239 239 239 238 238 238 237 237 236 235 234 234 234 234 234 233
286 286 285 284 282 279 278 278 277 275 274 274 274 273 272 271 270 269 268 267 266 264 262 260 259 257 256 255 254 252 251 249 247 246 246 244 243 242 241 241 241 240 239 238 238 237 237 237 236 236 236 236 235 234 233 232 231 231 231 231 231 231 230
288 288 286 284 282 279 279 279 278 276 275 275 274 273 272 272 270 269 268 266 265 263 262 260 259 258 256 255 254 252 251 249 248 248 247 245 242 241 240 239 238 238 237 236 235 235 235 235 235 234 234 233 233 231 231 230 230 229 230 229 229 229 228
290 289 287 284 281 280 280 280 278 277 277 276 275 273 272 271 270 269 267 265 264 262 261 260 259 257 256 254 253 252 251 250 249 248 247 246 244 242 240 238 237 236 235 234 234 233 233 233 233 233 232 232 231 230 229 229 229 229 229 228 228 228 227
292 290 287 284 282 282 282 280 278 278 277 275 274 273 272 271 270 268 266 264 263 261 260 259 257 256 255 254 252 251 250 249 248 247 245 245 245 243 241 239 237 235 234 234 233 233 232 232 232 231 231 230 229 229 228 228 228 228 228 228 227 227 226
294 290 287 284 284 284 283 281 279 278 276 275 274 273 271 270 268 267 265 263 262 260 259 257 256 254 253 252 251 249 248 246 245 243 242 241 242 242 241 240 238 236 235 234 233 233 232 232 231 230 229 228 228 227 227 227 227 227 227 226 226 225 225
293 289 287 286 285 285 284 282 280 279 277 275 274 272 271 269 267 265 264 262 261 260 258 256 255 253 251 250 249 247 246 244 243 241 240 239 240 239 239 239 238 237 235 234 234 233 232 230 229 228 227 227 226 226 226 226 226 226 225 225 224 223 223
294 290 288 287 286 285 284 283 281 279 277 276 274 272 270 268 266 265 264 262 261 259 257 255 253 252 250 249 248 246 245 243 242 240 238 238 238 238 237 237 237 236 235 234 233 232 231 230 228 227 226 226 226 226 225 225 225 224 224 224 223 222 223
296 294 292 290 288 286 285 283 281 279 277 275 274 272 269 267 265 264 263 262 260 258 256 254 252 250 248 247 246 245 244 242 240 238 236 235 235 235 234 234 234 233 232 230 230 229 229 228 227 227 226 226 225 225 225 225 224 224 223 222 222 222 222
297 296 295 292 289 288 286 284 282 279 277 275 273 271 268 267 265 263 262 261 260 257 255 252 249 247 246 245 244 242 241 239 237 235 233 233 233 232 230 230 229 229 229 228 227 227 226 225 225 225 225 225 225 225 225 224 223 222 222 221 221 221 221
299 297 297 294 292 290 287 285 282 280 277 275 272 270 268 266 265 263 262 260 258 256 253 250 246 243 242 241 240 238 237 236 234 232 231 231 231 230 229 228 228 228 227 227 226 226 225 225 224 224 223 223 224 224 224 223 222 221 221 220 220 220 221
300 298 298 296 293 291 289 286 283 280 278 276 273 270 268 266 264 263 262 260 257 254 250 247 244 240 238 237 236 235 234 233 232 231 230 230 229 228 227 226 227 226 226 225 225 225 225 224 224 224 223 222 222 222 222 221 221 220 220 219 220 220 220
303 300 298 296 294 292 290 287 284 282 279 276 274 271 268 266 264 263 262 259 255 251 248 244 241 239 237 236 235 234 232 230 229 229 229 229 228 226 224 224 224 224 223 224 223 223 223 223 223 222 222 221 221 221 220 220 219 219 219 219 220 220 220
305 303 300 297 295 293 291 288 286 283 280 277 274 271 268 266 264 263 261 258 255 251 247 243 240 237 235 234 234 233 231 229 228 227 227 227 226 224 222 222 223 222 222 222 222 222 222 221 221 221 221 220 220 219 219 218 218 218 219 220 220 221 220
307 305 302 299 297 294 292 289 287 283 280 277 274 270 268 266 265 263 261 258 255 251 247 243 239 235 233 231 231 231 231 230 228 227 226 225 225 223 222 221 221 221 221 221 221 221 221 220 220 220 219 219 219 218 218 217 218 219 220 220 220 220 220